Flag for Kuwait Weather past 2 weeks in Kuwait City, Kuwait

Now
61 °F

Clear.


Feels Like: 61 °F
Forecast: 55 / 71 °F
Wind: 7 mph from Southeast

Location: Kuwait International Airport

Current Time: Jan 26, 2015 at 11:47:03 PM

Latest Report: Jan 26, 2015 at 11:00 PM


Visibility: 4 mi

Pressure: 30.12 "Hg

Humidity: 68%

Dew point: 50 °F

Location of Kuwait CityLocation

Historic Weather in Kuwait City — Graph

°F

Kuwait City temperature yesterday

Maximum temperature yesterday: 73 °F (at 2:00 PM)
Minimum temperature yesterday: 37 °F (at 5:00 AM)
Average temperature yesterday: 54 °F

Past Weeks' High & Low Weather Summary

 TemperatureHumidityPressure
High73 °F (Jan 25, 2:00 PM)100% (Jan 25, 12:00 AM)30.39 "Hg (Jan 25, 12:00 AM)
Low34 °F (Jan 22, 6:00 AM)15% (Jan 14, 3:00 PM)30.04 "Hg (Jan 19, 1:00 PM)
Average53 °F54%30.19 "Hg
* Reported Jan 11 10:00 PM — Jan 26 10:00 PM, Kuwait City, Weather by CustomWeather, © 2014

Note: Actual official high and low records may vary slightly from our data, if they occured in-between our weather recording intervals... More about our weather records

Advertising

Kuwait City weather history for previous 24 hours

 ConditionsComfort  
Time TempWeatherWind HumidityBarometerVisibility
10:00 PM
Jan 26
61 °FClear.10 mph68%30.12 "Hg4 mi
9:00 PM63 °FClear.16 mph64%30.12 "Hg4 mi
8:00 PM63 °FHaze.12 mph68%30.15 "Hg3 mi
7:00 PM63 °FClear.14 mph68%30.12 "Hg4 mi
6:00 PM63 °FClear.13 mph68%30.12 "Hg4 mi
5:00 PM64 °FClear.13 mph52%30.15 "Hg4 mi
4:00 PM68 °FClear.16 mph49%30.12 "Hg4 mi
3:00 PM70 °FClear.13 mph46%30.12 "Hg4 mi
2:00 PM70 °FClear.13 mph50%30.15 "Hg4 mi
1:00 PM70 °FClear.10 mph46%30.15 "Hg4 mi
12:00 PM70 °FClear.12 mph46%30.18 "Hg4 mi
11:00 AM68 °FHaze.10 mph49%30.24 "Hg3 mi
10:00 AM64 °FHaze.8 mph68%30.24 "Hg2 mi
9:00 AM59 °FFog.6 mph94%30.24 "Hg1 mi
8:00 AM46 °FDense fog.No wind100%30.24 "Hg0 mi
7:00 AM46 °FDense fog.3 mph100%30.21 "Hg0 mi
6:00 AM48 °FDense fog.No wind100%30.21 "Hg0 mi
5:00 AM46 °FDense fog.No wind100%30.21 "Hg0 mi
4:00 AM46 °FDense fog.No wind100%30.18 "Hg0 mi
3:00 AM46 °FDense fog.No wind93%30.18 "Hg0 mi
2:00 AM48 °FDense fog.No wind100%30.21 "Hg0 mi
1:00 AM46 °FDense fog.No wind100%30.24 "Hg0 mi
12:00 AM48 °FFog.No wind100%30.24 "Hg1 mi
11:00 PM
Jan 25
52 °FFog.No wind94%30.24 "Hg1 mi
Weather by CustomWeather, © 2014

See weather overviewHow to use our weather pages